| time (UTC) | temp C | wind direction | speed KPH | gust KPH | rain 1hr cm | rain 24hr cm | rain mn cm | humidity % | barometer mb |
| 20260509201402 | 22 | 67 | 1.6 | 1.6 | 0.00 | 0.00 | 0.00 | 49 | 1009.3 |
| 20260509200859 | 21 | 67 | 0.0 | 0.0 | 0.00 | 0.00 | 0.00 | 47 | 1009.1 |
| 20260509200354 | 21 | 67 | 0.0 | 0.0 | 0.00 | 0.00 | 0.00 | 49 | 1009.4 |
| 20260509195851 | 22 | 67 | 3.2 | 4.8 | 0.00 | 0.00 | 0.00 | 47 | 1009.4 |
| 20260509195351 | 22 | 67 | 0.0 | 0.0 | 0.00 | 0.00 | 0.00 | 48 | 1009.4 |
| 20260509194851 | 22 | 68 | 0.0 | 0.0 | 0.00 | 0.00 | 0.00 | 49 | 1009.4 |
| 20260509194348 | 22 | 68 | 1.6 | 1.6 | 0.00 | 0.00 | 0.00 | 46 | 1009.4 |
| 20260509193844 | 22 | 124 | 0.0 | 1.6 | 0.00 | 0.00 | 0.00 | 46 | 1009.4 |
| 20260509193343 | 22 | 120 | 4.8 | 6.4 | 0.00 | 0.00 | 0.00 | 47 | 1009.5 |
| 20260509192840 | 22 | 132 | 3.2 | 4.8 | 0.00 | 0.00 | 0.00 | 44 | 1009.6 |
| 20260509192336 | 22 | 131 | 4.8 | 4.8 | 0.00 | 0.00 | 0.00 | 48 | 1009.5 |
| 20260509191831 | 22 | 131 | 4.8 | 6.4 | 0.00 | 0.00 | 0.00 | 48 | 1009.5 |
| 20260509191327 | 21 | 126 | 1.6 | 4.8 | 0.00 | 0.00 | 0.00 | 51 | 1009.5 |
| 20260509190823 | 20 | 127 | 1.6 | 1.6 | 0.00 | 0.00 | 0.00 | 53 | 1009.5 |
| 20260509190320 | 21 | 120 | 4.8 | 6.4 | 0.00 | 0.00 | 0.00 | 51 | 1009.5 |
| 20260509185818 | 21 | 88 | 1.6 | 4.8 | 0.00 | 0.00 | 0.00 | 53 | 1009.6 |
| 20260509185314 | 22 | 120 | 1.6 | 6.4 | 0.00 | 0.00 | 0.00 | 49 | 1009.5 |
| 20260509184812 | 21 | 125 | 3.2 | 3.2 | 0.00 | 0.00 | 0.00 | 49 | 1009.7 |
| 20260509184309 | 22 | 126 | 6.4 | 9.7 | 0.00 | 0.00 | 0.00 | 48 | 1010.0 |
| 20260509183805 | 21 | 125 | 0.0 | 1.6 | 0.00 | 0.00 | 0.00 | 54 | 1009.8 |
| 20260509183301 | 21 | 125 | 6.4 | 9.7 | 0.00 | 0.00 | 0.00 | 50 | 1009.8 |
| 20260509182756 | 21 | 124 | 1.6 | 3.2 | 0.00 | 0.00 | 0.00 | 53 | 1009.9 |
| 20260509182254 | 21 | 124 | 0.0 | 3.2 | 0.00 | 0.00 | 0.00 | 61 | 1010.2 |
| 20260509181751 | 20 | 124 | 1.6 | 4.8 | 0.00 | 0.00 | 0.00 | 56 | 1010.2 |
| 20260509181249 | 20 | 124 | 3.2 | 4.8 | 0.00 | 0.00 | 0.00 | 60 | 1010.3 |
| 20260509180746 | 20 | 124 | 4.8 | 6.4 | 0.00 | 0.00 | 0.00 | 57 | 1010.2 |
| 20260509180242 | 20 | 124 | 1.6 | 1.6 | 0.00 | 0.00 | 0.00 | 59 | 1010.7 |
| 20260509175738 | 20 | 124 | 0.0 | 1.6 | 0.00 | 0.00 | 0.00 | 58 | 1010.6 |
| 20260509175235 | 20 | 40 | 0.0 | 1.6 | 0.00 | 0.00 | 0.00 | 61 | 1010.8 |
| 20260509174731 | 19 | 40 | 0.0 | 0.0 | 0.00 | 0.00 | 0.00 | 60 | 1011.1 |
| 20260509174226 | 18 | 40 | 1.6 | 1.6 | 0.00 | 0.00 | 0.00 | 62 | 1010.9 |
| 20260509173722 | 19 | 37 | 3.2 | 3.2 | 0.00 | 0.00 | 0.00 | 59 | 1010.9 |
| 20260509173218 | 19 | 5 | 0.0 | 0.0 | 0.00 | 0.00 | 0.00 | 65 | 1011.2 |
| 20260509172715 | 18 | 264 | 0.0 | 1.6 | 0.00 | 0.00 | 0.00 | 63 | 1011.4 |
| 20260509172211 | 17 | 320 | 0.0 | 3.2 | 0.00 | 0.00 | 0.00 | 64 | 1011.8 |
| 20260509171707 | 18 | 280 | 0.0 | 1.6 | 0.00 | 0.00 | 0.00 | 60 | 1011.7 |
| 20260509171203 | 17 | 303 | 3.2 | 4.8 | 0.00 | 0.00 | 0.00 | 64 | 1011.7 |
| 20260509170700 | 17 | 311 | 0.0 | 4.8 | 0.00 | 0.00 | 0.00 | 64 | 1011.6 |
| 20260509170156 | 17 | 314 | 1.6 | 3.2 | 0.00 | 0.00 | 0.00 | 66 | 1011.8 |
| 20260509165654 | 17 | 310 | 3.2 | 6.4 | 0.00 | 0.00 | 0.00 | 64 | 1011.6 |
| 20260509165150 | 16 | 318 | 3.2 | 4.8 | 0.00 | 0.00 | 0.00 | 66 | 1011.8 |
| 20260509164646 | 16 | 306 | 0.0 | 4.8 | 0.00 | 0.00 | 0.00 | 64 | 1011.5 |
| 20260509164142 | 16 | 314 | 0.0 | 0.0 | 0.00 | 0.00 | 0.00 | 66 | 1011.5 |
| 20260509163640 | 16 | 312 | 3.2 | 4.8 | 0.00 | 0.00 | 0.00 | 64 | 1011.5 |
| 20260509163135 | 17 | 309 | 0.0 | 3.2 | 0.00 | 0.00 | 0.00 | 64 | 1011.4 |
| 20260509162633 | 17 | 319 | 3.2 | 4.8 | 0.00 | 0.00 | 0.00 | 64 | 1011.4 |
| 20260509162128 | 16 | 309 | 3.2 | 6.4 | 0.00 | 0.00 | 0.00 | 65 | 1011.2 |
| 20260509161625 | 16 | 287 | 6.4 | 9.7 | 0.00 | 0.00 | 0.00 | 64 | 1011.3 |
| 20260509161120 | 16 | 325 | 6.4 | 9.7 | 0.00 | 0.00 | 0.00 | 65 | 1011.6 |
| 20260509160616 | 16 | 301 | 4.8 | 4.8 | 0.00 | 0.00 | 0.00 | 63 | 1011.7 |
| 20260509160111 | 17 | 313 | 1.6 | 4.8 | 0.00 | 0.00 | 0.00 | 64 | 1011.7 |
| 20260509155608 | 17 | 240 | 1.6 | 3.2 | 0.00 | 0.00 | 0.00 | 62 | 1011.7 |
| 20260509155104 | 17 | 251 | 0.0 | 0.0 | 0.00 | 0.00 | 0.00 | 65 | 1011.6 |
| 20260509154600 | 17 | 153 | 0.0 | 1.6 | 0.00 | 0.00 | 0.00 | 66 | 1011.9 |
| 20260509154058 | 17 | 153 | 4.8 | 6.4 | 0.00 | 0.00 | 0.00 | 64 | 1011.9 |
| 20260509153555 | 17 | 154 | 1.6 | 3.2 | 0.00 | 0.00 | 0.00 | 63 | 1011.9 |
| 20260509153052 | 18 | 154 | 0.0 | 1.6 | 0.00 | 0.00 | 0.00 | 63 | 1011.8 |
| 20260509152548 | 17 | 154 | 3.2 | 4.8 | 0.00 | 0.00 | 0.00 | 62 | 1011.6 |
| 20260509152045 | 17 | 153 | 0.0 | 1.6 | 0.00 | 0.00 | 0.00 | 60 | 1011.8 |
| 20260509151541 | 18 | 154 | 4.8 | 4.8 | 0.00 | 0.00 | 0.00 | 61 | 1011.8 |
| 20260509151039 | 17 | 153 | 0.0 | 0.0 | 0.00 | 0.00 | 0.00 | 63 | 1011.9 |
| 20260509150536 | 16 | 153 | 0.0 | 1.6 | 0.00 | 0.00 | 0.00 | 62 | 1011.8 |
| 20260509150034 | 16 | 153 | 0.0 | 3.2 | 0.00 | 0.00 | 0.00 | 65 | 1011.9 |
| 20260509145529 | 16 | 153 | 3.2 | 3.2 | 0.00 | 0.00 | 0.00 | 63 | 1011.9 |
| 20260509145025 | 16 | 153 | 0.0 | 1.6 | 0.00 | 0.00 | 0.00 | 67 | 1012.1 |
| 20260509144522 | 16 | 153 | 0.0 | 0.0 | 0.00 | 0.00 | 0.00 | 62 | 1012.0 |
| 20260509144019 | 16 | 153 | 3.2 | 3.2 | 0.00 | 0.00 | 0.00 | 64 | 1012.0 |
| 20260509143516 | 16 | 153 | 0.0 | 0.0 | 0.00 | 0.00 | 0.00 | 65 | 1012.1 |
| 20260509143014 | 15 | 153 | 0.0 | 1.6 | 0.00 | 0.00 | 0.00 | 68 | 1012.1 |
| 20260509142509 | 15 | 153 | 0.0 | 3.2 | 0.00 | 0.00 | 0.00 | 70 | 1012.3 |
| 20260509142005 | 15 | 226 | 0.0 | 0.0 | 0.00 | 0.00 | 0.00 | 69 | 1012.2 |
| 20260509141502 | 15 | 228 | 0.0 | 0.0 | 0.00 | 0.00 | 0.00 | 68 | 1012.1 |
| 20260509140959 | 15 | 228 | 0.0 | 0.0 | 0.00 | 0.00 | 0.00 | 70 | 1012.2 |
| 20260509140455 | 15 | 228 | 0.0 | 1.6 | 0.00 | 0.00 | 0.00 | 69 | 1012.0 |
| 20260509135953 | 14 | 299 | 1.6 | 1.6 | 0.00 | 0.00 | 0.00 | 69 | 1011.5 |
| 20260509135450 | 14 | 313 | 3.2 | 4.8 | 0.00 | 0.00 | 0.00 | 69 | 1011.3 |
| 20260509134947 | 14 | 325 | 1.6 | 3.2 | 0.00 | 0.00 | 0.00 | 68 | 1011.6 |
| 20260509134445 | 14 | 9 | 0.0 | 0.0 | 0.00 | 0.00 | 0.00 | 69 | 1011.7 |
| 20260509133942 | 14 | 9 | 0.0 | 0.0 | 0.00 | 0.00 | 0.00 | 71 | 1011.6 |
| 20260509133439 | 14 | 3 | 0.0 | 0.0 | 0.00 | 0.00 | 0.00 | 73 | 1011.8 |
| 20260509132937 | 14 | 345 | 0.0 | 0.0 | 0.00 | 0.00 | 0.00 | 72 | 1011.8 |
| 20260509132435 | 14 | 345 | 0.0 | 0.0 | 0.00 | 0.00 | 0.00 | 70 | 1011.8 |
| 20260509131931 | 14 | 333 | 0.0 | 0.0 | 0.00 | 0.00 | 0.00 | 72 | 1011.8 |
| 20260509131429 | 14 | 333 | 0.0 | 1.6 | 0.00 | 0.00 | 0.00 | 73 | 1011.8 |
| 20260509130925 | 14 | 323 | 0.0 | 0.0 | 0.00 | 0.00 | 0.00 | 72 | 1012.0 |
| 20260509130420 | 14 | 323 | 0.0 | 0.0 | 0.00 | 0.00 | 0.00 | 71 | 1011.8 |
| 20260509125918 | 14 | 323 | 0.0 | 0.0 | 0.00 | 0.00 | 0.00 | 71 | 1012.1 |
| 20260509125415 | 13 | 322 | 0.0 | 0.0 | 0.00 | 0.00 | 0.00 | 72 | 1011.9 |
| 20260509124910 | 13 | 322 | 0.0 | 0.0 | 0.00 | 0.00 | 0.00 | 76 | 1011.8 |
| 20260509124408 | 13 | 322 | 1.6 | 1.6 | 0.00 | 0.00 | 0.00 | 75 | 1011.6 |
| 20260509123905 | 13 | 321 | 1.6 | 4.8 | 0.00 | 0.00 | 0.00 | 75 | 1011.7 |
| 20260509123402 | 13 | 323 | 3.2 | 3.2 | 0.00 | 0.00 | 0.00 | 75 | 1011.7 |
| 20260509122858 | 13 | 316 | 0.0 | 0.0 | 0.00 | 0.00 | 0.00 | 74 | 1011.7 |
| 20260509122355 | 13 | 316 | 0.0 | 0.0 | 0.00 | 0.00 | 0.00 | 76 | 1011.9 |
| 20260509121852 | 13 | 316 | 0.0 | 0.0 | 0.00 | 0.00 | 0.00 | 75 | 1011.9 |
| 20260509121349 | 12 | 322 | 0.0 | 0.0 | 0.00 | 0.00 | 0.00 | 75 | 1011.7 |
| 20260509120847 | 13 | 316 | 1.6 | 1.6 | 0.00 | 0.00 | 0.00 | 73 | 1012.1 |
| 20260509120344 | 13 | 323 | 3.2 | 4.8 | 0.00 | 0.00 | 0.00 | 73 | 1012.1 |
| 20260509115842 | 13 | 321 | 1.6 | 3.2 | 0.00 | 0.00 | 0.00 | 72 | 1011.9 |
| 20260509115339 | 13 | 317 | 3.2 | 4.8 | 0.00 | 0.00 | 0.00 | 76 | 1012.1 |
| 20260509114837 | 13 | 60 | 0.0 | 0.0 | 0.00 | 0.00 | 0.00 | 75 | 1012.0 |
| 20260509114336 | 13 | 59 | 1.6 | 3.2 | 0.00 | 0.00 | 0.00 | 78 | 1012.0 |
| 20260509113834 | 12 | 60 | 0.0 | 0.0 | 0.00 | 0.00 | 0.00 | 73 | 1011.8 |
| 20260509113331 | 12 | 60 | 0.0 | 0.0 | 0.00 | 0.00 | 0.00 | 72 | 1011.6 |
| 20260509112828 | 12 | 60 | 0.0 | 0.0 | 0.00 | 0.00 | 0.00 | 76 | 1011.6 |
| 20260509112325 | 12 | 60 | 0.0 | 0.0 | 0.00 | 0.00 | 0.00 | 81 | 1011.6 |
| 20260509111822 | 12 | 60 | 0.0 | 0.0 | 0.00 | 0.00 | 0.00 | 77 | 1011.5 |
| 20260509111319 | 12 | 60 | 0.0 | 0.0 | 0.00 | 0.00 | 0.00 | 69 | 1011.6 |
| 20260509110817 | 12 | 60 | 0.0 | 0.0 | 0.00 | 0.00 | 0.00 | 68 | 1011.6 |
| 20260509110312 | 12 | 59 | 0.0 | 0.0 | 0.00 | 0.00 | 0.00 | 74 | 1011.8 |
| 20260509105811 | 11 | 59 | 0.0 | 0.0 | 0.00 | 0.00 | 0.00 | 74 | 1011.8 |
| 20260509105309 | 11 | 60 | 0.0 | 0.0 | 0.00 | 0.00 | 0.00 | 76 | 1011.8 |
| 20260509104805 | 11 | 60 | 0.0 | 0.0 | 0.00 | 0.00 | 0.00 | 83 | 1011.7 |
| 20260509104302 | 11 | 60 | 0.0 | 0.0 | 0.00 | 0.00 | 0.00 | 81 | 1011.5 |
| 20260509103800 | 11 | 60 | 0.0 | 0.0 | 0.00 | 0.00 | 0.00 | 78 | 1011.4 |
| 20260509103257 | 11 | 60 | 0.0 | 0.0 | 0.00 | 0.00 | 0.00 | 78 | 1011.4 |
| 20260509102755 | 11 | 60 | 0.0 | 0.0 | 0.00 | 0.00 | 0.00 | 76 | 1011.1 |
| 20260509102252 | 12 | 60 | 0.0 | 0.0 | 0.00 | 0.00 | 0.00 | 74 | 1011.1 |
| 20260509101748 | 12 | 60 | 0.0 | 0.0 | 0.00 | 0.00 | 0.00 | 76 | 1011.0 |
| 20260509101244 | 12 | 60 | 0.0 | 0.0 | 0.00 | 0.00 | 0.00 | 74 | 1011.2 |
| 20260509100742 | 12 | 60 | 0.0 | 0.0 | 0.00 | 0.00 | 0.00 | 75 | 1011.0 |
| 20260509100240 | 12 | 60 | 0.0 | 0.0 | 0.00 | 0.00 | 0.00 | 69 | 1011.2 |
| 20260509095735 | 12 | 60 | 0.0 | 0.0 | 0.00 | 0.00 | 0.00 | 70 | 1010.9 |
| 20260509095233 | 12 | 60 | 0.0 | 0.0 | 0.00 | 0.00 | 0.00 | 72 | 1010.8 |
| 20260509094730 | 12 | 60 | 0.0 | 0.0 | 0.00 | 0.00 | 0.00 | 70 | 1010.9 |
| 20260509094227 | 12 | 60 | 0.0 | 0.0 | 0.00 | 0.00 | 0.00 | 69 | 1011.0 |
| 20260509093725 | 12 | 60 | 0.0 | 0.0 | 0.00 | 0.00 | 0.00 | 67 | 1011.0 |
| 20260509093222 | 12 | 60 | 0.0 | 0.0 | 0.00 | 0.00 | 0.00 | 67 | 1010.8 |
| 20260509092720 | 12 | 60 | 0.0 | 0.0 | 0.00 | 0.00 | 0.00 | 68 | 1010.9 |
| 20260509092218 | 12 | 60 | 0.0 | 0.0 | 0.00 | 0.00 | 0.00 | 69 | 1010.8 |
| 20260509091716 | 11 | 60 | 0.0 | 0.0 | 0.00 | 0.00 | 0.00 | 71 | 1010.8 |
| 20260509091211 | 12 | 60 | 0.0 | 0.0 | 0.00 | 0.00 | 0.00 | 74 | 1010.9 |
| 20260509090709 | 12 | 60 | 0.0 | 0.0 | 0.00 | 0.00 | 0.00 | 73 | 1010.8 |
| 20260509090206 | 13 | 60 | 0.0 | 0.0 | 0.00 | 0.00 | 0.00 | 65 | 1010.9 |
| 20260509085704 | 12 | 60 | 0.0 | 0.0 | 0.00 | 0.00 | 0.00 | 61 | 1010.9 |
| 20260509085200 | 13 | 60 | 0.0 | 0.0 | 0.00 | 0.00 | 0.00 | 62 | 1010.9 |
| 20260509084657 | 13 | 60 | 0.0 | 0.0 | 0.00 | 0.00 | 0.00 | 62 | 1011.0 |
| 20260509084154 | 13 | 60 | 0.0 | 0.0 | 0.00 | 0.00 | 0.00 | 65 | 1011.0 |
| 20260509083652 | 13 | 60 | 1.6 | 3.2 | 0.00 | 0.00 | 0.00 | 63 | 1011.0 |
| 20260509083148 | 12 | 60 | 0.0 | 1.6 | 0.00 | 0.00 | 0.00 | 66 | 1011.1 |
| 20260509082646 | 13 | 60 | 0.0 | 0.0 | 0.00 | 0.00 | 0.00 | 62 | 1011.0 |
| 20260509082142 | 13 | 60 | 0.0 | 0.0 | 0.00 | 0.00 | 0.00 | 57 | 1011.0 |
| 20260509081639 | 13 | 60 | 0.0 | 0.0 | 0.00 | 0.00 | 0.00 | 58 | 1011.1 |
| 20260509081136 | 13 | 60 | 0.0 | 0.0 | 0.00 | 0.00 | 0.00 | 58 | 1011.1 |
| 20260509080635 | 13 | 60 | 0.0 | 0.0 | 0.00 | 0.00 | 0.00 | 57 | 1011.0 |
| 20260509080132 | 13 | 60 | 0.0 | 0.0 | 0.00 | 0.00 | 0.00 | 58 | 1011.1 |
| 20260509075630 | 13 | 60 | 0.0 | 0.0 | 0.00 | 0.00 | 0.00 | 58 | 1011.1 |
| 20260509075128 | 13 | 60 | 0.0 | 0.0 | 0.00 | 0.00 | 0.00 | 60 | 1011.1 |
| 20260509074624 | 13 | 60 | 0.0 | 0.0 | 0.00 | 0.00 | 0.00 | 59 | 1011.2 |
| 20260509074120 | 13 | 60 | 0.0 | 0.0 | 0.00 | 0.00 | 0.00 | 59 | 1011.2 |
| 20260509073617 | 13 | 60 | 0.0 | 0.0 | 0.00 | 0.00 | 0.00 | 58 | 1011.2 |
| 20260509073113 | 13 | 60 | 0.0 | 0.0 | 0.00 | 0.00 | 0.00 | 59 | 1011.2 |
| 20260509072610 | 13 | 60 | 0.0 | 0.0 | 0.00 | 0.00 | 0.00 | 61 | 1011.1 |
| 20260509072107 | 13 | 60 | 0.0 | 0.0 | 0.00 | 0.00 | 0.00 | 61 | 1011.3 |
| 20260509071604 | 13 | 60 | 0.0 | 0.0 | 0.00 | 0.00 | 0.00 | 61 | 1011.2 |
| 20260509071101 | 13 | 60 | 0.0 | 1.6 | 0.00 | 0.00 | 0.00 | 61 | 1011.3 |
| 20260509070558 | 13 | 60 | 0.0 | 0.0 | 0.00 | 0.00 | 0.00 | 60 | 1011.3 |
| 20260509070054 | 13 | 60 | 0.0 | 0.0 | 0.00 | 0.00 | 0.00 | 60 | 1011.4 |
| 20260509065550 | 13 | 60 | 0.0 | 0.0 | 0.00 | 0.00 | 0.00 | 61 | 1011.2 |
| 20260509065046 | 13 | 60 | 0.0 | 0.0 | 0.00 | 0.00 | 0.00 | 60 | 1011.4 |
| 20260509064544 | 13 | 60 | 0.0 | 0.0 | 0.00 | 0.00 | 0.00 | 60 | 1011.4 |
| 20260509064042 | 13 | 60 | 0.0 | 0.0 | 0.00 | 0.00 | 0.00 | 58 | 1011.3 |
| 20260509063537 | 13 | 60 | 0.0 | 0.0 | 0.00 | 0.00 | 0.00 | 58 | 1011.4 |
| 20260509063035 | 13 | 60 | 0.0 | 1.6 | 0.00 | 0.00 | 0.00 | 58 | 1011.6 |
| 20260509062532 | 13 | 60 | 0.0 | 0.0 | 0.00 | 0.00 | 0.00 | 58 | 1011.5 |
| 20260509062030 | 13 | 60 | 0.0 | 0.0 | 0.00 | 0.00 | 0.00 | 58 | 1011.7 |
| 20260509061526 | 13 | 60 | 0.0 | 0.0 | 0.00 | 0.00 | 0.00 | 58 | 1011.6 |
| 20260509061024 | 13 | 60 | 0.0 | 0.0 | 0.00 | 0.00 | 0.00 | 60 | 1011.7 |
| 20260509060521 | 13 | 60 | 0.0 | 0.0 | 0.00 | 0.00 | 0.00 | 62 | 1011.8 |
| 20260509060016 | 13 | 60 | 1.6 | 1.6 | 0.00 | 0.00 | 0.00 | 57 | 1011.7 |
| 20260509055512 | 13 | 60 | 0.0 | 0.0 | 0.00 | 0.00 | 0.00 | 61 | 1011.8 |
| 20260509055008 | 13 | 60 | 0.0 | 1.6 | 0.00 | 0.00 | 0.00 | 60 | 1011.5 |
| 20260509054505 | 13 | 60 | 0.0 | 0.0 | 0.00 | 0.00 | 0.00 | 62 | 1011.8 |
| 20260509054003 | 13 | 60 | 0.0 | 0.0 | 0.00 | 0.00 | 0.00 | 64 | 1011.8 |
| 20260509053501 | 13 | 60 | 0.0 | 0.0 | 0.00 | 0.00 | 0.00 | 65 | 1011.6 |
| 20260509052958 | 13 | 60 | 0.0 | 0.0 | 0.00 | 0.00 | 0.00 | 64 | 1011.7 |
| 20260509052456 | 13 | 15 | 0.0 | 0.0 | 0.00 | 0.00 | 0.00 | 64 | 1011.7 |
| 20260509051953 | 12 | 14 | 0.0 | 0.0 | 0.00 | 0.00 | 0.00 | 65 | 1011.6 |
| 20260509051451 | 12 | 14 | 0.0 | 0.0 | 0.00 | 0.00 | 0.00 | 67 | 1011.8 |
| 20260509050948 | 12 | 14 | 0.0 | 0.0 | 0.00 | 0.00 | 0.00 | 68 | 1011.7 |
| 20260509050444 | 12 | 14 | 0.0 | 0.0 | 0.00 | 0.00 | 0.00 | 68 | 1011.7 |
| 20260509045941 | 11 | 14 | 0.0 | 0.0 | 0.00 | 0.00 | 0.00 | 68 | 1011.7 |
| 20260509045438 | 11 | 14 | 0.0 | 0.0 | 0.00 | 0.00 | 0.00 | 73 | 1011.5 |
| 20260509044935 | 11 | 14 | 0.0 | 0.0 | 0.00 | 0.00 | 0.00 | 74 | 1011.7 |
| 20260509044433 | 12 | 14 | 0.0 | 0.0 | 0.00 | 0.00 | 0.00 | 65 | 1011.8 |
| 20260509043930 | 12 | 14 | 0.0 | 0.0 | 0.00 | 0.00 | 0.00 | 65 | 1012.0 |
| 20260509043426 | 12 | 14 | 0.0 | 0.0 | 0.00 | 0.00 | 0.00 | 65 | 1012.0 |
| 20260509042921 | 12 | 14 | 0.0 | 0.0 | 0.00 | 0.00 | 0.00 | 65 | 1011.9 |
| 20260509042419 | 12 | 14 | 0.0 | 0.0 | 0.00 | 0.00 | 0.00 | 65 | 1011.9 |
| 20260509041914 | 12 | 14 | 0.0 | 0.0 | 0.00 | 0.00 | 0.00 | 63 | 1012.1 |
| 20260509041412 | 12 | 14 | 0.0 | 0.0 | 0.00 | 0.00 | 0.00 | 64 | 1012.0 |
| 20260509040910 | 12 | 14 | 0.0 | 0.0 | 0.00 | 0.00 | 0.00 | 64 | 1011.9 |
| 20260509040408 | 12 | 14 | 0.0 | 0.0 | 0.00 | 0.00 | 0.00 | 68 | 1011.9 |
| 20260509035904 | 12 | 14 | 0.0 | 0.0 | 0.00 | 0.00 | 0.00 | 64 | 1012.0 |
| 20260509035401 | 13 | 14 | 0.0 | 0.0 | 0.00 | 0.00 | 0.00 | 62 | 1012.0 |
| 20260509034857 | 13 | 14 | 0.0 | 0.0 | 0.00 | 0.00 | 0.00 | 62 | 1012.2 |
| 20260509034355 | 13 | 14 | 0.0 | 0.0 | 0.00 | 0.00 | 0.00 | 63 | 1012.0 |
| 20260509033852 | 13 | 14 | 0.0 | 0.0 | 0.00 | 0.00 | 0.00 | 63 | 1012.1 |
| 20260509033350 | 13 | 14 | 0.0 | 0.0 | 0.00 | 0.00 | 0.00 | 62 | 1012.2 |
| 20260509032846 | 13 | 14 | 0.0 | 0.0 | 0.00 | 0.00 | 0.00 | 62 | 1012.2 |
| 20260509032343 | 13 | 14 | 0.0 | 0.0 | 0.00 | 0.00 | 0.00 | 62 | 1012.2 |
| 20260509031842 | 13 | 14 | 0.0 | 0.0 | 0.00 | 0.00 | 0.00 | 62 | 1012.1 |
| 20260509031338 | 13 | 14 | 0.0 | 0.0 | 0.00 | 0.00 | 0.00 | 63 | 1012.0 |
| 20260509030836 | 12 | 14 | 0.0 | 0.0 | 0.00 | 0.00 | 0.00 | 66 | 1012.0 |
| 20260509030334 | 11 | 14 | 0.0 | 0.0 | 0.00 | 0.00 | 0.00 | 75 | 1012.1 |
| 20260509025830 | 12 | 14 | 0.0 | 0.0 | 0.00 | 0.00 | 0.00 | 74 | 1012.2 |
| 20260509025325 | 11 | 14 | 0.0 | 0.0 | 0.00 | 0.00 | 0.00 | 70 | 1012.1 |
| 20260509024821 | 12 | 14 | 0.0 | 0.0 | 0.00 | 0.00 | 0.00 | 72 | 1012.3 |
| 20260509024318 | 12 | 14 | 0.0 | 0.0 | 0.00 | 0.00 | 0.00 | 72 | 1012.4 |
| 20260509023815 | 12 | 14 | 0.0 | 0.0 | 0.00 | 0.00 | 0.00 | 72 | 1012.4 |
| 20260509023312 | 12 | 14 | 0.0 | 0.0 | 0.00 | 0.00 | 0.00 | 67 | 1012.4 |
| 20260509022808 | 12 | 14 | 0.0 | 0.0 | 0.00 | 0.00 | 0.00 | 63 | 1012.6 |
| 20260509022307 | 12 | 14 | 0.0 | 0.0 | 0.00 | 0.00 | 0.00 | 68 | 1012.5 |
| 20260509021803 | 12 | 14 | 0.0 | 0.0 | 0.00 | 0.00 | 0.00 | 64 | 1012.3 |
| 20260509021300 | 12 | 14 | 0.0 | 0.0 | 0.00 | 0.00 | 0.00 | 64 | 1012.5 |
| 20260509020757 | 12 | 14 | 0.0 | 0.0 | 0.00 | 0.00 | 0.00 | 63 | 1012.5 |
| 20260509020255 | 12 | 14 | 0.0 | 0.0 | 0.00 | 0.00 | 0.00 | 69 | 1012.4 |
| 20260509015753 | 12 | 14 | 0.0 | 0.0 | 0.00 | 0.00 | 0.00 | 65 | 1012.4 |
| 20260509015251 | 12 | 14 | 0.0 | 0.0 | 0.00 | 0.00 | 0.00 | 72 | 1012.2 |
| 20260509014747 | 12 | 14 | 0.0 | 0.0 | 0.00 | 0.00 | 0.00 | 71 | 1012.0 |
| 20260509014244 | 13 | 14 | 0.0 | 0.0 | 0.00 | 0.00 | 0.00 | 69 | 1012.2 |
| 20260509013740 | 13 | 14 | 0.0 | 0.0 | 0.00 | 0.00 | 0.00 | 66 | 1012.5 |
| 20260509013236 | 13 | 14 | 0.0 | 0.0 | 0.00 | 0.00 | 0.00 | 66 | 1012.4 |
| 20260509012733 | 13 | 14 | 0.0 | 0.0 | 0.00 | 0.00 | 0.00 | 67 | 1012.2 |
| 20260509012230 | 14 | 14 | 0.0 | 0.0 | 0.00 | 0.00 | 0.00 | 61 | 1012.3 |
| 20260509011727 | 14 | 14 | 0.0 | 0.0 | 0.00 | 0.00 | 0.00 | 57 | 1012.4 |
| 20260509011225 | 14 | 14 | 0.0 | 0.0 | 0.00 | 0.00 | 0.00 | 58 | 1012.4 |
| 20260509010722 | 15 | 14 | 0.0 | 0.0 | 0.00 | 0.00 | 0.00 | 63 | 1012.2 |
| 20260509010218 | 15 | 14 | 0.0 | 0.0 | 0.00 | 0.00 | 0.00 | 61 | 1012.1 |
| 20260509005716 | 16 | 14 | 0.0 | 0.0 | 0.00 | 0.00 | 0.00 | 55 | 1012.2 |
| 20260509005213 | 16 | 14 | 0.0 | 0.0 | 0.00 | 0.00 | 0.00 | 50 | 1012.1 |
| 20260509004707 | 16 | 14 | 0.0 | 0.0 | 0.00 | 0.00 | 0.00 | 49 | 1012.1 |
| 20260509004205 | 16 | 14 | 0.0 | 0.0 | 0.00 | 0.00 | 0.00 | 50 | 1012.2 |
| 20260509003703 | 16 | 14 | 0.0 | 0.0 | 0.00 | 0.00 | 0.00 | 50 | 1012.2 |
| 20260509003201 | 16 | 14 | 0.0 | 0.0 | 0.00 | 0.00 | 0.00 | 51 | 1012.2 |
| 20260509002658 | 16 | 14 | 0.0 | 0.0 | 0.00 | 0.00 | 0.00 | 52 | 1012.3 |
| 20260509002155 | 16 | 14 | 0.0 | 0.0 | 0.00 | 0.00 | 0.00 | 54 | 1011.9 |
| 20260509001653 | 16 | 14 | 0.0 | 0.0 | 0.00 | 0.00 | 0.00 | 56 | 1012.1 |
| 20260509001148 | 17 | 14 | 0.0 | 0.0 | 0.00 | 0.00 | 0.00 | 51 | 1012.0 |
| 20260509000647 | 17 | 14 | 0.0 | 0.0 | 0.00 | 0.00 | 0.00 | 49 | 1012.1 |
| 20260509000143 | 17 | 14 | 0.0 | 0.0 | 0.00 | 0.00 | 0.00 | 47 | 1012.0 |
| 20260508235641 | 17 | 14 | 0.0 | 0.0 | 0.00 | 0.00 | 0.00 | 45 | 1011.9 |
| 20260508235137 | 17 | 14 | 0.0 | 0.0 | 0.00 | 0.00 | 0.00 | 45 | 1011.9 |
| 20260508234634 | 17 | 14 | 0.0 | 0.0 | 0.00 | 0.00 | 0.00 | 46 | 1011.6 |
| 20260508234131 | 18 | 14 | 0.0 | 0.0 | 0.00 | 0.00 | 0.00 | 46 | 1011.9 |
| 20260508233630 | 18 | 14 | 0.0 | 0.0 | 0.00 | 0.00 | 0.00 | 43 | 1011.9 |
| 20260508233127 | 18 | 341 | 0.0 | 0.0 | 0.00 | 0.00 | 0.00 | 45 | 1011.7 |
| 20260508232624 | 18 | 314 | 0.0 | 0.0 | 0.00 | 0.00 | 0.00 | 43 | 1011.6 |
| 20260508232121 | 18 | 314 | 0.0 | 0.0 | 0.00 | 0.00 | 0.00 | 41 | 1011.7 |
| 20260508231619 | 19 | 312 | 0.0 | 0.0 | 0.00 | 0.00 | 0.00 | 42 | 1011.7 |
| 20260508231115 | 19 | 311 | 0.0 | 0.0 | 0.00 | 0.00 | 0.00 | 42 | 1011.6 |
| 20260508230612 | 20 | 311 | 0.0 | 1.6 | 0.00 | 0.00 | 0.00 | 38 | 1011.6 |
| 20260508230109 | 19 | 311 | 0.0 | 0.0 | 0.00 | 0.00 | 0.00 | 37 | 1011.4 |
| 20260508225607 | 19 | 319 | 1.6 | 3.2 | 0.00 | 0.00 | 0.00 | 38 | 1011.4 |
| 20260508225103 | 19 | 319 | 3.2 | 4.8 | 0.00 | 0.00 | 0.00 | 36 | 1011.7 |
| 20260508224601 | 19 | 323 | 3.2 | 4.8 | 0.00 | 0.00 | 0.00 | 39 | 1011.5 |
| 20260508224057 | 19 | 325 | 3.2 | 4.8 | 0.00 | 0.00 | 0.00 | 37 | 1011.5 |
| 20260508223555 | 19 | 320 | 3.2 | 4.8 | 0.00 | 0.00 | 0.00 | 37 | 1011.6 |
| 20260508223052 | 19 | 314 | 4.8 | 6.4 | 0.00 | 0.00 | 0.00 | 37 | 1011.7 |
| 20260508222550 | 19 | 328 | 6.4 | 11.3 | 0.00 | 0.00 | 0.00 | 39 | 1011.6 |
| 20260508222047 | 20 | 303 | 8.0 | 9.7 | 0.00 | 0.00 | 0.00 | 35 | 1011.6 |
| 20260508221543 | 20 | 322 | 8.0 | 11.3 | 0.00 | 0.00 | 0.00 | 34 | 1011.4 |
| 20260508221038 | 21 | 313 | 8.0 | 9.7 | 0.00 | 0.00 | 0.00 | 35 | 1011.5 |
| 20260508220536 | 20 | 321 | 6.4 | 9.7 | 0.00 | 0.00 | 0.00 | 36 | 1011.6 |
| 20260508220032 | 20 | 327 | 9.7 | 11.3 | 0.00 | 0.00 | 0.00 | 36 | 1011.5 |
| 20260508215529 | 20 | 311 | 8.0 | 12.9 | 0.00 | 0.00 | 0.00 | 35 | 1011.5 |
| 20260508215026 | 20 | 320 | 9.7 | 12.9 | 0.00 | 0.00 | 0.00 | 34 | 1011.6 |
| 20260508214523 | 20 | 312 | 9.7 | 11.3 | 0.00 | 0.00 | 0.00 | 34 | 1011.7 |
| 20260508214019 | 19 | 285 | 6.4 | 12.9 | 0.00 | 0.00 | 0.00 | 34 | 1011.6 |
| 20260508213517 | 19 | 300 | 8.0 | 11.3 | 0.00 | 0.00 | 0.00 | 36 | 1011.8 |
| 20260508213012 | 19 | 317 | 9.7 | 12.9 | 0.00 | 0.00 | 0.00 | 38 | 1011.8 |
| 20260508212509 | 19 | 310 | 11.3 | 12.9 | 0.00 | 0.00 | 0.00 | 37 | 1011.8 |
| 20260508212006 | 19 | 307 | 9.7 | 16.1 | 0.00 | 0.00 | 0.00 | 35 | 1011.9 |
| 20260508211501 | 19 | 305 | 11.3 | 14.5 | 0.00 | 0.00 | 0.00 | 34 | 1011.9 |
| 20260508210958 | 20 | 309 | 14.5 | 16.1 | 0.00 | 0.00 | 0.00 | 34 | 1011.8 |
| 20260508210454 | 20 | 336 | 12.9 | 14.5 | 0.00 | 0.00 | 0.00 | 33 | 1011.9 |
| 20260508205950 | 20 | 310 | 16.1 | 20.9 | 0.00 | 0.00 | 0.00 | 33 | 1011.7 |
| 20260508205448 | 20 | 316 | 14.5 | 22.5 | 0.00 | 0.00 | 0.00 | 33 | 1011.9 |
| 20260508204944 | 20 | 326 | 20.9 | 24.1 | 0.00 | 0.00 | 0.00 | 32 | 1011.8 |
| 20260508204442 | 20 | 320 | 16.1 | 24.1 | 0.00 | 0.00 | 0.00 | 33 | 1011.9 |
| 20260508203937 | 20 | 308 | 17.7 | 17.7 | 0.00 | 0.00 | 0.00 | 33 | 1011.9 |
| 20260508203433 | 20 | 302 | 14.5 | 14.5 | 0.00 | 0.00 | 0.00 | 31 | 1011.6 |
| 20260508202929 | 20 | 303 | 19.3 | 24.1 | 0.00 | 0.00 | 0.00 | 32 | 1012.0 |
| 20260508202427 | 21 | 328 | 27.4 | 29.0 | 0.00 | 0.00 | 0.00 | 31 | 1011.8 |
| 20260508201924 | 21 | 316 | 25.7 | 29.0 | 0.00 | 0.00 | 0.00 | 29 | 1011.9 |